sat.trackr.live / text

‹ back to catalog

FLOCK 4Q-31

NORAD 58285 · 2023-174AF

PAYLOAD ACTIVE UNKNOWN

§ Identity

Operator
Country
US
Launch date
2023-11-11
Launch site
AFWTR
Launch vehicle
Mass (kg)
RCS (m²)

Purposes: earth_obs

External: N2YO · Heavens-Above · Gunter

§ Orbital elements

Epoch: 2026-05-24T17:12:41.335776Z

Period
92.57 min
Inclination
97.3910°
Eccentricity
0.0006192
Mean motion
15.55646023 rev/d
Perigee alt
396.1 km
Apogee alt
404.5 km
Semi-major
6,778.4 km
B*
4.4485e-4
RAAN
236.0329°
Arg perigee
215.5159°
Mean anomaly
144.5684°
Rev number
14,213

§ Raw data

FLOCK 4Q-311 58285U 23174AF  26144.71714509  .00030528  00000+0  44485-3 0  99912 58285  97.3910 236.0329 0006192 215.5159 144.5684 15.55646023142130

JSON: /api/v1/satellites/58285 · /tle

For live sub-satellite position, see the globe view (requires WebGL).

§ Visibility from observer

Set your observer location to see the next 7 days of passes ≥ 10°. The values pass through the URL so the page stays shareable.

No JS? Fill the form by hand. The geolocation button needs JavaScript.